[[{"header":{"parameterUnit":"m.s-1","parameterCategory":1,"la1":30.2991,"la2":30.254,"lo1":-89.0895,"lo2":-89.0444,"dy":0.0017,"dx":0.0017,"nx":28,"ny":28,"refTime":"2023-10-21T21:00:00:Z","depth":0,"parameterNumber":2,"parameterNumberName":"U-component_of_WINDS"},"data":[0,0,0,0,0,0,0,0,0,0,0,0,0,0,0,0,0,0,0,0,0,0,0,0,0,0,0,0,0,0,0,0,0,0,0,0,0,0,0,0,0,0,0,0,0,0,0,0,0,0,0,0,0,0,0,0,0,0,-1.5091,-1.509,0,-1.5069,-1.5069,-1.5068,-1.5012,-1.501,-1.5009,-1.5008,-1.4988,-1.4989,-1.499,0,0,0,0,0,0,0,0,0,0,0,0,0,-1.5085,-1.5085,-1.5091,-1.509,-1.509,-1.5069,-1.5069,-1.5068,-1.5012,-1.501,-1.5009,-1.5007,-1.4988,-1.4989,-1.499,0,0,0,0,0,0,0,0,0,0,0,0,0,-1.5078,-1.5085,-1.5091,-1.5059,-1.5056,-1.5069,-1.5069,-1.5068,-1.5012,-1.501,-1.5008,-1.5007,-1.4988,-1.4989,-1.499,-1.5032,0,0,-1.4993,-1.4993,0,0,0,0,0,0,0,0,-1.5078,-1.5078,-1.5064,-1.5061,-1.5058,-1.5041,-1.5059,-1.5056,-1.5013,-1.5029,-1.5008,-1.5006,-1.5008,-1.5007,-1.5007,-1.5031,-1.503,-1.4993,-1.4993,-1.4994,-1.4994,0,0,0,0,0,0,0,-1.5079,-1.5079,-1.5082,-1.5064,-1.506,-1.5047,-1.5044,-1.5059,-1.5029,-1.5027,-1.5023,-1.5021,-1.5006,-1.5006,-1.5006,-1.503,-1.4993,-1.4994,-1.4994,-1.4994,-1.5089,-1.5091,0,0,0,0,0,0,-1.5084,-1.508,-1.5083,-1.5081,-1.5064,-1.5048,-1.5045,-1.5048,-1.5029,-1.5024,-1.5023,-1.5019,-1.5005,-1.5005,-1.5005,-1.5054,-1.4994,-1.4995,-1.4995,-1.5087,-1.5089,-1.5091,0,0,0,0,0,0,-1.5084,-1.5084,-1.5084,-1.5079,-1.5078,-1.505,-1.5055,-1.5049,-1.5049,-1.5025,-1.502,-1.5029,-1.5004,-1.5004,-1.5026,-1.5053,-1.4995,-1.4996,-1.5085,-1.5088,-1.509,-1.5153,0,0,0,0,0,0,-1.5084,-1.5085,-1.51,-1.508,-1.5079,-1.5104,-1.5056,-1.505,-1.5051,-1.5045,-1.5029,-1.5025,-1.5002,-1.5025,-1.5027,-1.5053,-1.4997,-1.5082,-1.5086,-1.5089,-1.5148,-1.5157,-1.5165,0,0,0,0,0,-1.5084,-1.5119,-1.5101,-1.5102,-1.5097,-1.5106,-1.5105,-1.5078,-1.5053,-1.5069,-1.5053,-1.5025,-1.5049,-1.5028,-1.5029,-1.5056,-1.508,-1.5085,-1.5089,-1.5144,-1.5156,-1.5165,0,0,0,0,0,0,-1.5144,-1.5116,-1.5096,-1.5126,-1.5119,-1.5096,-1.5116,-1.5091,-1.5092,-1.5086,-1.5053,-1.505,-1.5077,-1.5068,-1.5045,-1.5096,-1.506,-1.5065,-1.5102,-1.5112,-1.512,-1.5123,-1.4997,0,0,0,0,0,-1.5161,-1.517,-1.5145,-1.5173,-1.5171,-1.5144,-1.5147,-1.5126,-1.5118,-1.5115,-1.5101,-1.5095,-1.5101,-1.5105,-1.5109,-1.5146,-1.5142,-1.5165,-1.5174,-1.5181,-1.5186,-1.5206,-1.5216,-1.5106,-1.5106,-1.5106,0,0,-1.5196,-1.5181,-1.5189,-1.5185,-1.5177,-1.5188,-1.5142,-1.5155,-1.5163,-1.5117,-1.5137,-1.5127,-1.5117,-1.5147,-1.5159,-1.5141,-1.5215,-1.5186,-1.5192,-1.5194,-1.5211,-1.5222,-1.5231,-1.5109,-1.5108,-1.5108,0,0,-1.5265,-1.5255,-1.5278,-1.527,-1.5259,-1.524,-1.5246,-1.5227,-1.5218,-1.5237,-1.5204,-1.5212,-1.5223,-1.5218,-1.5217,-1.5284,-1.5259,-1.5286,-1.5332,-1.5351,-1.536,-1.5367,-1.5393,-1.5402,-1.5291,-1.5291,-1.5291,0,-1.5311,-1.5325,-1.5293,-1.5308,-1.5308,-1.5265,-1.5289,-1.5284,-1.5275,-1.5276,-1.5254,-1.5267,-1.5258,-1.5286,-1.5302,-1.5302,-1.5309,-1.5289,-1.5361,-1.5368,-1.5375,-1.5399,-1.5408,-1.5295,-1.5294,-1.5294,-1.5294,0,-1.5381,-1.5392,-1.5412,-1.5403,-1.5405,-1.5424,-1.5396,-1.5402,-1.5381,-1.5365,-1.5385,-1.5372,-1.5374,-1.5378,-1.5358,-1.5404,-1.5393,-1.5367,-1.533,-1.539,-1.5411,-1.542,-1.53,-1.5299,-1.5297,-1.5297,0,0,-1.549,-1.5463,-1.5471,-1.5467,-1.545,-1.5458,-1.5475,-1.5475,-1.5481,-1.5476,-1.5491,-1.55,-1.5476,-1.5475,-1.5454,-1.547,-1.5526,-1.5442,-1.5441,-1.546,-1.5577,-1.5598,-1.5609,-1.5508,-1.5509,-1.5511,-1.5578,0,-1.5557,-1.5585,-1.5557,-1.5591,-1.5601,-1.556,-1.5575,-1.5567,-1.5553,-1.5559,-1.5543,-1.5551,-1.5518,-1.5517,-1.5531,-1.5516,-1.5549,-1.551,-1.5523,-1.5524,-1.5529,-1.562,-1.5642,-1.5707,-1.5586,-1.5588,-1.5589,0,-1.5639,-1.5637,-1.5672,-1.5653,-1.5656,-1.567,-1.5668,-1.5675,-1.5665,-1.5653,-1.5651,-1.5625,-1.5642,-1.5604,-1.5628,-1.5602,-1.5605,-1.5598,-1.56,-1.5602,-1.5561,-1.5626,-1.5727,-1.5737,-1.5602,-1.56,-1.56,0,-1.5717,-1.5722,-1.5744,-1.5741,-1.572,-1.5731,-1.5723,-1.5711,-1.5713,-1.5711,-1.5712,-1.5712,-1.5713,-1.5714,-1.5689,-1.5664,-1.5717,-1.5677,-1.5709,-1.571,-1.5723,-1.5723,-1.5828,-1.5722,-1.5722,-1.5722,-1.5722,0,-1.5795,-1.5819,-1.5779,-1.5793,-1.5818,-1.5785,-1.5811,-1.5798,-1.5788,-1.5799,-1.5764,-1.5775,-1.574,-1.5749,-1.5729,-1.5752,-1.5752,-1.5744,-1.5739,-1.5749,-1.575,-1.5752,-1.5747,-1.5724,-1.5724,-1.5723,-1.5723,0,-1.5888,-1.5861,-1.5883,-1.586,-1.5855,-1.5875,-1.5855,-1.5868,-1.585,-1.5865,-1.5866,-1.5839,-1.5847,-1.5821,-1.5825,-1.5812,-1.5846,-1.5833,-1.585,-1.5846,-1.588,-1.5878,-1.5991,-1.6005,-1.5889,-1.589,-1.5891,0,-1.594,-1.5957,-1.5936,-1.5941,-1.5934,-1.5942,-1.5943,-1.5911,-1.5914,-1.5904,-1.5918,-1.5922,-1.5924,-1.5938,-1.5919,-1.5922,-1.591,-1.5949,-1.591,-1.5919,-1.5912,-1.5912,-1.5915,-1.5958,-1.5959,-1.596,-1.5961,0,-1.6037,-1.6023,-1.6026,-1.6025,-1.6028,-1.6026,-1.6021,-1.6027,-1.5992,-1.5998,-1.6004,-1.6006,-1.6009,-1.6014,-1.6013,-1.6005,-1.5978,-1.5973,-1.5981,-1.5992,-1.6002,-1.5999,-1.5874,-1.5971,-1.597,-1.597,-1.5969,-1.5969,-1.6112,-1.6126,-1.6113,-1.6118,-1.6111,-1.6107,-1.6117,-1.6101,-1.6105,-1.6105,-1.6086,-1.6097,-1.6086,-1.6082,-1.6076,-1.6085,-1.6067,-1.6078,-1.6081,-1.6085,-1.6091,-1.5999,-1.6084,-1.6084,-1.6084,-1.6084,-1.6083,0,-1.6209,-1.6198,-1.6203,-1.6197,-1.6201,-1.6173,-1.6167,-1.6172,-1.6182,-1.6174,-1.6176,-1.6185,-1.619,-1.6171,-1.6173,-1.6184,-1.6172,-1.6186,-1.6186,-1.6185,-1.6106,-1.61,-1.6196,-1.6196,-1.6196,-1.6196,-1.6196,-1.6196,-1.626,-1.6281,-1.6266,-1.6284,-1.6273,-1.6283,-1.6282,-1.6278,-1.6272,-1.6282,-1.6286,-1.6273,-1.6261,-1.6262,-1.6266,-1.626,-1.6264,-1.6282,-1.6273,-1.6201,-1.619,-1.618,-1.6174,-1.6283,-1.6283,-1.635,-1.6351,-1.6351]},{"header":{"parameterUnit":"m.s-1","parameterCategory":1,"la1":30.2991,"la2":30.254,"lo1":-89.0895,"lo2":-89.0444,"dy":0.0017,"dx":0.0017,"nx":28,"ny":28,"refTime":"2023-10-21T21:00:00:Z","depth":0,"parameterNumber":3,"parameterNumberName":"V-component_of_WINDS"},"data":[0,0,0,0,0,0,0,0,0,0,0,0,0,0,0,0,0,0,0,0,0,0,0,0,0,0,0,0,0,0,0,0,0,0,0,0,0,0,0,0,0,0,0,0,0,0,0,0,0,0,0,0,0,0,0,0,0,0,-0.1701,-0.1702,0,-0.1744,-0.1745,-0.1745,-0.1753,-0.1752,-0.1752,-0.1751,-0.18,-0.1801,-0.1803,0,0,0,0,0,0,0,0,0,0,0,0,0,-0.1628,-0.163,-0.1701,-0.1702,-0.1702,-0.1744,-0.1745,-0.1745,-0.1753,-0.1752,-0.1752,-0.1751,-0.1799,-0.1801,-0.1803,0,0,0,0,0,0,0,0,0,0,0,0,0,-0.1665,-0.163,-0.1701,-0.1711,-0.1712,-0.1744,-0.1745,-0.1746,-0.1753,-0.1752,-0.1752,-0.1751,-0.1799,-0.1801,-0.1804,-0.183,0,0,-0.1811,-0.1812,0,0,0,0,0,0,0,0,-0.1663,-0.1667,-0.1709,-0.171,-0.1712,-0.1742,-0.1737,-0.1774,-0.1753,-0.1737,-0.1751,-0.1751,-0.1782,-0.1785,-0.1795,-0.1833,-0.1835,-0.1811,-0.1813,-0.1814,-0.1815,0,0,0,0,0,0,0,-0.166,-0.1666,-0.1718,-0.1709,-0.1711,-0.1714,-0.1719,-0.1744,-0.1762,-0.1739,-0.1739,-0.1744,-0.1782,-0.1792,-0.1796,-0.1835,-0.1811,-0.1813,-0.1815,-0.1816,-0.1897,-0.1897,0,0,0,0,0,0,-0.1655,-0.1663,-0.1717,-0.172,-0.1685,-0.1716,-0.1721,-0.1733,-0.1762,-0.1766,-0.1745,-0.1744,-0.1789,-0.1793,-0.1798,-0.1831,-0.1814,-0.1816,-0.1818,-0.1896,-0.1897,-0.1898,0,0,0,0,0,0,-0.1654,-0.166,-0.1715,-0.1692,-0.1699,-0.1718,-0.1731,-0.1734,-0.1745,-0.1766,-0.177,-0.1751,-0.1788,-0.1794,-0.1822,-0.1832,-0.1817,-0.182,-0.1895,-0.1896,-0.1897,-0.1897,0,0,0,0,0,0,-0.1652,-0.1659,-0.1669,-0.1692,-0.17,-0.1738,-0.1732,-0.1736,-0.1748,-0.1748,-0.1774,-0.1778,-0.1788,-0.1818,-0.1824,-0.1836,-0.1821,-0.1894,-0.1896,-0.1897,-0.1896,-0.1898,-0.1899,0,0,0,0,0,-0.1649,-0.1668,-0.167,-0.1676,-0.1712,-0.1738,-0.1743,-0.1754,-0.1749,-0.1759,-0.1773,-0.1777,-0.183,-0.1821,-0.1828,-0.184,-0.1894,-0.1895,-0.1897,-0.1895,-0.1897,-0.1899,0,0,0,0,0,0,-0.1648,-0.1672,-0.1673,-0.17,-0.1717,-0.1739,-0.1753,-0.1756,-0.1775,-0.1775,-0.1788,-0.1794,-0.1821,-0.1833,-0.1822,-0.1867,-0.1862,-0.1865,-0.1858,-0.186,-0.1862,-0.1859,-0.1823,0,0,0,0,0,-0.1651,-0.1669,-0.1689,-0.1711,-0.1719,-0.1734,-0.1746,-0.1752,-0.1771,-0.1778,-0.1794,-0.1813,-0.1834,-0.1848,-0.1869,-0.1898,-0.1903,-0.191,-0.1911,-0.1912,-0.1915,-0.1931,-0.1934,-0.1903,-0.1902,-0.1902,0,0,-0.1657,-0.1672,-0.1683,-0.1711,-0.1724,-0.1743,-0.174,-0.1761,-0.1775,-0.1782,-0.1808,-0.1821,-0.1843,-0.1871,-0.1884,-0.1882,-0.1925,-0.1914,-0.1915,-0.1917,-0.1933,-0.1936,-0.1939,-0.1904,-0.1903,-0.1903,0,0,-0.1679,-0.1691,-0.1711,-0.1724,-0.1744,-0.1754,-0.1759,-0.178,-0.1788,-0.1814,-0.182,-0.1838,-0.1874,-0.1889,-0.1901,-0.1927,-0.1931,-0.1933,-0.1942,-0.1957,-0.196,-0.1962,-0.1971,-0.1974,-0.1936,-0.1936,-0.1936,0,-0.1685,-0.1712,-0.1721,-0.174,-0.1753,-0.1758,-0.1778,-0.1791,-0.1817,-0.1826,-0.1823,-0.1867,-0.1883,-0.1914,-0.192,-0.193,-0.1936,-0.1931,-0.1958,-0.1961,-0.1963,-0.1972,-0.1976,-0.1936,-0.1936,-0.1936,-0.1936,0,-0.1718,-0.1737,-0.175,-0.1774,-0.1787,-0.1807,-0.182,-0.1833,-0.1838,-0.1849,-0.1875,-0.1894,-0.1918,-0.1925,-0.1932,-0.1958,-0.1956,-0.1955,-0.195,-0.1966,-0.1975,-0.1978,-0.1936,-0.1936,-0.1936,-0.1936,0,0,-0.1742,-0.1768,-0.1773,-0.1783,-0.1805,-0.182,-0.1841,-0.1862,-0.1873,-0.1891,-0.1909,-0.1938,-0.1938,-0.1952,-0.1959,-0.1973,-0.1992,-0.1971,-0.1972,-0.1974,-0.2022,-0.2023,-0.2026,-0.1994,-0.1995,-0.1995,-0.202,0,-0.1765,-0.18,-0.1808,-0.1838,-0.1856,-0.186,-0.1878,-0.1894,-0.1904,-0.1921,-0.1933,-0.1953,-0.1951,-0.1959,-0.1973,-0.1986,-0.2002,-0.1985,-0.2012,-0.2013,-0.2006,-0.2031,-0.2032,-0.2055,-0.2024,-0.2024,-0.2025,0,-0.1798,-0.1815,-0.1846,-0.1864,-0.1872,-0.1888,-0.1908,-0.1924,-0.1942,-0.1949,-0.1963,-0.1969,-0.1992,-0.1984,-0.2015,-0.2004,-0.2015,-0.2024,-0.2025,-0.2028,-0.202,-0.2036,-0.2062,-0.2066,-0.203,-0.203,-0.2029,0,-0.1812,-0.1842,-0.1865,-0.1873,-0.1896,-0.1906,-0.1916,-0.1934,-0.1946,-0.1964,-0.1972,-0.1993,-0.2005,-0.2022,-0.2033,-0.2027,-0.2063,-0.2057,-0.207,-0.207,-0.2078,-0.2078,-0.2108,-0.2085,-0.2085,-0.2085,-0.2085,0,-0.1838,-0.1858,-0.1871,-0.1885,-0.1906,-0.1915,-0.1937,-0.1947,-0.1962,-0.1979,-0.1985,-0.2001,-0.2015,-0.2033,-0.2043,-0.2067,-0.2072,-0.2079,-0.2081,-0.2078,-0.2078,-0.2087,-0.2086,-0.2086,-0.2086,-0.2085,-0.2085,0,-0.1858,-0.1868,-0.1892,-0.191,-0.1915,-0.1931,-0.1947,-0.1961,-0.197,-0.1991,-0.1997,-0.2013,-0.2034,-0.2047,-0.2075,-0.2081,-0.2108,-0.211,-0.2101,-0.2102,-0.2115,-0.2113,-0.2152,-0.2157,-0.213,-0.2131,-0.2131,0,-0.1875,-0.1889,-0.1908,-0.1918,-0.1928,-0.1945,-0.1957,-0.1967,-0.1979,-0.2,-0.2012,-0.2033,-0.2051,-0.2085,-0.21,-0.2121,-0.2123,-0.2135,-0.2127,-0.2123,-0.2124,-0.2123,-0.2125,-0.2137,-0.2137,-0.2137,-0.2138,0,-0.1903,-0.1906,-0.1922,-0.194,-0.1953,-0.1968,-0.1983,-0.1992,-0.2004,-0.2018,-0.2039,-0.2052,-0.2079,-0.21,-0.2123,-0.2134,-0.2138,-0.214,-0.2144,-0.2142,-0.2136,-0.214,-0.2106,-0.2139,-0.2139,-0.2139,-0.2139,-0.2139,-0.1922,-0.1934,-0.1949,-0.1967,-0.1978,-0.1991,-0.2005,-0.2015,-0.2032,-0.2054,-0.2059,-0.2081,-0.2099,-0.2128,-0.214,-0.2159,-0.2157,-0.2163,-0.2165,-0.2166,-0.2166,-0.2133,-0.2163,-0.2163,-0.2163,-0.2163,-0.2163,0,-0.195,-0.1959,-0.1975,-0.1994,-0.2008,-0.2008,-0.2025,-0.2037,-0.2055,-0.207,-0.2087,-0.2111,-0.2131,-0.2147,-0.2168,-0.218,-0.2182,-0.2185,-0.2185,-0.2187,-0.2167,-0.2161,-0.2183,-0.2183,-0.2183,-0.2183,-0.2183,-0.2183,-0.1966,-0.1988,-0.1993,-0.202,-0.203,-0.205,-0.2059,-0.2071,-0.2083,-0.2109,-0.2125,-0.2134,-0.215,-0.2172,-0.2191,-0.2195,-0.2203,-0.2206,-0.221,-0.2191,-0.2189,-0.2187,-0.2181,-0.2207,-0.2207,-0.223,-0.223,-0.223]}]]